Wind_Speed
88 91 94 98 101 97 101 98 99 99 97 105 108 103 121 126 123 122 126 126 133 138 132 137 132 114 105 102 91 84 79 74 69 60 55 52 48 41
98 96 97 97 100 101 98 108 96 106 101 116 126 131 131 130 132 133 135 139 143 139 144 139 116 104 99 90 86 80 73 64 61 54 53 49 43 39
101 100 95 100 104 107 110 117 112 122 127 128 133 130 134 135 137 138 143 145 146 144 142 116 107 100 94 88 78 70 66 57 56 51 51 46 39 37
113 119 114 105 111 121 127 129 134 136 135 135 135 137 142 145 148 150 140 144 143 126 111 105 96 90 83 77 70 65 58 53 53 47 45 41 37 34
114 118 118 124 131 136 136 138 140 139 137 143 145 148 148 150 150 143 145 135 117 106 101 97 92 86 79 72 64 58 55 53 50 48 41 39 35 34
138 139 138 136 137 138 143 143 143 140 141 144 143 142 147 144 143 139 127 114 106 101 96 93 86 80 71 64 58 56 51 47 45 44 41 39 36 36
144 142 141 141 143 145 143 142 146 146 146 147 148 147 151 147 134 119 109 105 99 96 92 80 71 64 59 53 49 46 45 43 42 42 38 38 35 36
149 146 147 150 149 145 148 148 149 152 148 148 152 144 133 126 115 110 103 98 94 85 73 62 56 51 49 44 42 42 41 41 41 39 37 37 37 39
142 143 145 144 146 149 152 151 150 151 155 145 133 124 116 112 106 101 97 91 79 66 56 50 46 42 40 39 38 37 38 40 39 37 37 38 41 40
150 149 149 152 153 154 153 154 156 146 133 127 116 111 106 101 98 93 85 72 60 55 48 42 39 37 35 34 36 37 37 38 38 37 37 39 42 43
151 154 154 155 154 155 151 143 135 127 116 110 105 101 97 92 87 77 66 58 52 46 41 37 35 34 33 34 35 34 34 33 34 35 36 38 43 45
159 161 155 151 147 138 131 122 116 109 102 97 95 91 85 77 69 61 55 49 44 39 36 33 31 31 31 31 32 33 32 33 34 37 38 38 43 49
144 137 132 130 124 118 112 107 101 95 93 88 84 78 70 63 58 53 49 45 40 36 34 32 31 31 30 31 32 32 34 35 36 38 39 40 44 47
121 120 116 113 108 104 99 94 89 87 83 77 70 64 59 54 51 49 45 41 38 36 34 32 30 29 30 31 32 33 35 37 37 41 44 47 47 51
109 105 102 100 97 93 89 85 80 77 72 65 59 54 51 50 48 46 42 40 38 37 35 35 33 31 30 30 33 34 36 37 39 42 45 49 51 55
97 96 95 93 89 84 78 73 67 64 59 56 52 51 50 50 49 46 43 42 39 38 36 35 34 33 33 33 34 35 35 36 39 41 41 43 46 49
90 89 85 81 76 71 66 61 59 57 54 52 51 50 49 50 48 45 44 42 41 39 37 35 33 33 33 34 34 35 36 37 40 41 43 46 49 51
83 81 75 71 66 60 58 57 54 54 52 51 51 50 50 49 46 46 43 42 41 41 41 40 39 38 40 41 41 42 43 45 46 46 48 50 51 53
77 72 67 62 59 56 55 54 54 52 51 52 51 50 48 47 47 45 42 41 42 42 42 43 41 42 43 42 41 42 43 46 47 48 50 53 56 56
72 67 63 60 58 55 54 54 53 52 52 51 50 48 48 48 47 44 43 44 44 43 43 44 43 45 44 43 44 44 45 48 50 53 57 60 62 64
67 64 62 59 57 55 54 54 52 52 51 51 50 49 48 47 46 46 46 46 45 45 46 45 45 46 46 48 48 48 50 53 57 59 59 60 63 66
64 63 61 58 57 56 54 54 54 53 53 52 51 49 48 48 48 47 48 48 48 47 47 46 46 49 50 50 52 55 57 58 58 58 60 61 62 62
63 61 60 59 57 57 56 54 54 54 54 52 50 49 49 50 49 49 50 50 51 51 50 49 51 53 54 57 58 57 57 59 59 59 58 58 56 56
Wind_Direction
269 275 276 284 286 287 290 292 294 295 297 296 297 299 297 300 303 300 302 304 303 307 308 309 310 309 307 307 304 302 300 299 298 296 292 294 294 293
271 274 278 277 280 288 285 290 289 296 294 293 292 295 298 300 301 301 300 302 304 306 308 309 307 306 305 302 300 298 295 295 294 292 291 291 288 286
269 272 274 278 276 280 285 286 283 288 289 291 293 297 298 300 299 300 301 304 304 305 304 305 304 304 301 298 296 294 293 291 288 287 285 285 282 280
271 274 276 269 272 277 281 282 286 289 290 292 294 294 295 296 299 301 302 306 304 306 303 303 302 299 298 294 292 289 286 285 285 282 280 278 271 268
270 272 270 271 273 277 280 281 287 288 290 290 293 293 296 297 298 300 301 304 303 302 301 300 299 297 292 290 285 282 283 281 278 278 271 269 264 260
267 270 272 274 274 277 279 283 286 287 288 291 294 296 298 300 299 301 302 303 302 302 299 298 295 290 287 284 279 279 276 273 273 274 266 264 254 248
268 270 272 274 277 278 281 283 286 288 291 292 295 297 296 299 299 301 300 301 301 300 298 296 291 285 282 278 277 275 273 269 265 268 260 256 245 241
269 270 272 273 275 278 283 285 285 290 292 295 294 298 296 297 299 300 302 300 299 299 297 293 288 283 278 274 271 271 271 267 263 262 256 248 238 241
273 275 278 279 280 281 283 287 288 290 291 295 293 296 296 297 298 299 299 300 301 298 296 291 286 280 274 272 270 267 266 262 260 258 250 241 235 237
273 275 277 277 279 281 283 286 287 291 290 291 293 295 295 296 296 297 299 299 297 296 292 287 281 277 271 265 262 266 264 261 259 256 246 239 233 233
273 275 277 278 281 282 284 286 287 289 290 290 292 292 293 293 295 296 297 297 295 293 289 287 280 274 269 264 264 263 263 259 256 251 246 239 232 233
273 275 276 278 280 281 282 284 285 287 288 288 290 290 292 292 292 293 295 294 293 291 290 285 280 271 266 264 262 260 257 257 252 248 246 242 235 239
272 274 274 275 278 279 281 284 286 286 287 288 287 288 290 289 291 292 293 293 294 294 293 289 283 277 271 264 261 258 254 252 251 247 248 247 246 244
269 271 273 274 277 279 281 283 285 284 284 284 285 285 286 287 289 290 291 294 295 294 293 290 284 278 273 268 262 258 255 254 254 249 248 250 251 250
269 271 273 275 277 280 282 283 282 281 281 281 281 281 283 285 286 287 289 289 289 290 289 288 286 282 277 271 268 265 263 261 259 256 255 253 254 253
270 271 273 276 279 281 280 278 277 276 277 277 277 279 281 283 283 285 285 286 287 285 282 282 280 278 277 274 271 267 265 262 260 260 259 257 257 254
270 272 274 276 276 276 275 274 274 274 274 274 275 276 279 280 280 281 282 283 282 281 279 278 276 273 271 270 269 267 267 266 265 264 263 261 261 260
269 272 273 273 272 271 271 272 270 271 272 273 274 276 275 276 276 277 279 279 278 278 277 276 274 273 273 273 272 271 269 269 269 267 265 265 265 266
267 269 269 268 267 267 267 267 268 270 272 274 276 275 273 272 273 275 276 276 275 276 275 276 274 274 274 274 271 269 270 272 272 270 269 268 267 266
264 265 262 262 263 262 262 263 267 270 273 275 275 273 271 270 273 274 274 274 276 276 276 276 275 274 272 270 271 273 273 273 273 273 273 274 274 273
259 259 259 259 259 258 258 261 266 271 275 276 275 272 271 270 270 271 272 273 274 275 274 275 275 275 275 276 277 277 276 277 278 278 278 278 277 276
255 256 257 257 257 257 257 260 265 270 273 275 273 270 270 271 271 271 272 273 274 274 274 274 273 273 275 276 277 277 278 279 279 281 281 281 280 279
252 253 255 257 256 257 258 260 265 269 273 272 270 268 269 269 271 272 273 274 275 275 275 275 274 275 276 277 278 279 279 281 283 283 284 285 281 278
Height
10663 10658 10656 10654 10651 10647 10646 10643 10641 10641 10637 10634 10629 10618 10623 10618 10611 10607 10601 10594 10588 10581 10571 10566 10554 10548 10540 10533 10527 10522 10518 10515 10512 10510 10505 10503 10502 10500
10646 10645 10642 10640 10639 10637 10633 10631 10624 10626 10621 10619 10616 10607 10600 10595 10589 10583 10578 10572 10563 10554 10546 10539 10531 10523 10518 10511 10507 10502 10500 10497 10494 10493 10491 10490 10488 10488
10627 10628 10626 10626 10622 10621 10615 10611 10611 10607 10601 10598 10593 10587 10580 10574 10568 10560 10554 10548 10540 10529 10523 10513 10506 10500 10494 10489 10486 10482 10479 10479 10476 10477 10476 10476 10475 10475
10611 10611 10610 10608 10604 10602 10599 10592 10588 10584 10578 10574 10569 10563 10558 10551 10544 10536 10528 10521 10512 10502 10494 10488 10481 10476 10470 10468 10465 10464 10464 10462 10461 10461 10461 10461 10462 10463
10592 10593 10592 10590 10586 10579 10577 10572 10567 10561 10557 10552 10547 10540 10534 10526 10520 10511 10504 10494 10485 10477 10469 10462 10456 10452 10449 10447 10444 10442 10442 10444 10445 10445 10446 10448 10449 10451
10571 10570 10569 10567 10562 10558 10554 10550 10546 10539 10534 10529 10522 10517 10509 10502 10493 10485 10476 10468 10460 10452 10444 10437 10432 10428 10426 10424 10424 10427 10425 10427 10429 10431 10432 10433 10435 10439
10545 10547 10544 10543 10541 10536 10532 10526 10521 10516 10512 10506 10499 10491 10485 10477 10467 10460 10452 10445 10436 10427 10420 10413 10408 10406 10404 10405 10405 10408 10409 10412 10413 10416 10417 10419 10422 10426
10522 10522 10520 10519 10517 10513 10507 10502 10498 10493 10488 10482 10473 10467 10456 10449 10443 10436 10429 10421 10414 10404 10397 10393 10388 10387 10387 10388 10390 10392 10396 10397 10400 10402 10404 10407 10410 10414
10498 10496 10495 10493 10491 10486 10481 10477 10473 10469 10464 10457 10448 10442 10432 10426 10420 10414 10406 10399 10391 10384 10379 10376 10372 10372 10372 10373 10375 10379 10382 10384 10387 10389 10391 10395 10398 10402
10474 10471 10469 10467 10466 10461 10456 10453 10448 10445 10438 10433 10426 10419 10413 10407 10399 10393 10386 10379 10373 10368 10364 10362 10360 10359 10360 10361 10363 10366 10369 10371 10374 10377 10379 10383 10387 10391
10449 10444 10445 10442 10436 10433 10432 10428 10423 10421 10416 10411 10404 10398 10393 10387 10380 10374 10369 10364 10358 10354 10351 10349 10348 10348 10348 10350 10353 10356 10357 10360 10362 10365 10369 10373 10376 10380
10418 10421 10417 10415 10413 10409 10408 10406 10403 10400 10394 10388 10384 10378 10373 10368 10363 10358 10354 10350 10347 10343 10340 10338 10338 10338 10339 10340 10343 10345 10346 10348 10351 10354 10357 10361 10364 10368
10392 10392 10391 10390 10389 10387 10385 10385 10380 10376 10372 10368 10363 10359 10356 10350 10346 10344 10341 10338 10335 10332 10329 10328 10327 10327 10328 10330 10331 10333 10335 10337 10339 10342 10345 10348 10351 10355
10366 10368 10367 10366 10365 10364 10364 10362 10359 10354 10351 10348 10345 10342 10339 10336 10333 10331 10329 10326 10322 10321 10319 10319 10319 10319 10319 10320 10321 10322 10324 10326 10328 10330 10332 10335 10337 10339
10343 10343 10344 10343 10343 10344 10342 10340 10337 10333 10332 10330 10329 10326 10324 10322 10321 10319 10317 10314 10312 10311 10310 10309 10309 10309 10309 10309 10310 10311 10313 10314 10315 10317 10319 10320 10322 10323
10321 10321 10322 10323 10323 10323 10320 10318 10316 10315 10315 10314 10313 10312 10310 10309 10307 10306 10304 10302 10301 10300 10299 10299 10299 10298 10298 10299 10300 10300 10301 10302 10302 10303 10305 10306 10307 10307
10300 10300 10302 10304 10303 10303 10301 10299 10299 10298 10299 10299 10298 10299 10298 10296 10294 10292 10291 10290 10289 10288 10288 10288 10289 10288 10288 10288 10288 10287 10288 10288 10288 10289 10290 10290 10291 10291
10276 10279 10282 10284 10284 10285 10284 10283 10283 10284 10284 10284 10284 10285 10283 10281 10280 10279 10278 10277 10276 10275 10275 10275 10276 10276 10275 10275 10275 10274 10274 10274 10273 10274 10273 10273 10274 10273
10256 10261 10263 10265 10267 10268 10268 10268 10268 10269 10270 10269 10269 10269 10268 10267 10265 10265 10265 10264 10264 10263 10262 10262 10264 10263 10261 10261 10261 10261 10261 10259 10259 10258 10257 10256 10255 10256
10237 10241 10244 10247 10249 10251 10253 10254 10254 10254 10254 10254 10254 10254 10253 10252 10251 10251 10251 10250 10250 10250 10249 10249 10248 10247 10247 10247 10246 10247 10246 10244 10243 10241 10238 10235 10233 10231
10218 10223 10227 10230 10232 10234 10237 10239 10240 10240 10239 10238 10239 10239 10239 10238 10237 10237 10237 10237 10236 10236 10235 10235 10234 10231 10231 10230 10230 10231 10230 10228 10225 10221 10218 10215 10212 10207
10200 10204 10208 10212 10215 10217 10220 10222 10224 10224 10224 10223 10223 10223 10223 10223 10222 10222 10222 10222 10221 10221 10221 10221 10219 10217 10216 10215 10214 10212 10211 10209 10205 10201 10198 10193 10190 10185
10181 10186 10189 10193 10197 10200 10202 10205 10208 10209 10209 10208 10207 10207 10208 10207 10207 10207 10207 10207 10206 10205 10206 10206 10203 10202 10200 10198 10195 10193 10191 10189 10185 10181 10177 10173 10168 10165